Regional Weather Roundup
Issued by NWS Newport/Morehead, NC

Current Version | Previous Version | Text Only | Print | Product List | Glossary On
Versions: 1 2 3 4 5 6 7 8 9 10 11 12 13 14 15 16 17 18 19 20 21 22 23 24 25 26 27 28 29 30 31 32 33 34 35 36 37 38 39 40 41 42 43 44 45 46 47 48 49 50
000 ASUS42 KMHX 010913 RWRMHX WEATHER ROUNDUP FOR EASTERN NORTH CAROLINA NATIONAL WEATHER SERVICE NEWPORT/MOREHEAD CITY NC 500 AM EDT SUN MAY 01 2016 NOTE: "FAIR" INDICATES FEW OR NO CLOUDS BELOW 12,000 FEET WITH NO SIGNIFICANT WEATHER AND/OR OBSTRUCTIONS TO VISIBILITY NCZ015>017-031-032-045>047-102-103-011000- NORTH COAST CITY SKY/WX TMP DP RH WIND PRES REMARKS EDENTON CLOUDY 56 56 100 CALM 30.13S ELIZABETH CITY MOCLDY 57 53 86 E3 30.13S KITTY HAWK MOSUNNY 56 54 93 E3 30.12R MANTEO NOT AVBL $$ NCZ045>047-081-094-103-104-011000- CENTRAL COAST CITY SKY/WX TMP DP RH WIND PRES REMARKS FRISCO PTCLDY 60 57 89 NE6 30.11R SWANQUARTER NOT AVBL $$ NCZ095-097-098-100-101-011000- SOUTHERN COAST CITY SKY/WX TMP DP RH WIND PRES REMARKS BEAUFORT CLOUDY 59 58 96 CALM 30.11S CEDAR ISLAND NOT AVBL JACKSONVILLE CLOUDY 61 59 93 N7 30.11S PINEY ISLAND NOT AVBL WILMINGTON CLOUDY 66 64 93 E5 30.10S $$ NCZ011>013-027>030-043-044-078>080-089-090>093-098-011000- COASTAL PLAIN CITY SKY/WX TMP DP RH WIND PRES REMARKS AHOSKIE CLOUDY 54 52 91 CALM 30.14S CLINTON CLOUDY 60 60 100 E3 30.12S FOG ELIZABETHTOWN CLOUDY 61 61 99 CALM 30.11S FOG GOLDSBORO CLOUDY 61 61 100 E5 30.11S GREENVILLE CLOUDY 55 54 94 E3 30.15S HAVELOCK CLOUDY 61 59 93 CALM 30.13R KENANSVILLE CLOUDY 59 57 94 CALM 30.13S KINSTON CLOUDY 60 57 91 E5 30.13F NEW BERN CLOUDY 60 57 89 CALM 30.14R RICHLANDS CLOUDY 59 59 100 NE5 30.12S FOG ROCKY MOUNT CLOUDY 57 55 93 CALM 30.14S WASHINGTON CLOUDY 55 53 91 CALM 30.14R WHITEVILLE CLOUDY 64 61 91 CALM 30.10R $$ AMZ130-135-150-152-154-156-158-170-250-252-270-ANZ085-086-088-633-658-670-011000- MARINE OBSERVATIONS STATION/POSITION TIME TEMP WIND PRES WAVE SWELL AIR SEA DIR/SP/G HT/PER HT/PER (UTC) (F) (DEG/KT/KT) (MB) (FT/S) (FT/S) CHESAPEAKE LIGHT 0900 54 80/ 12/ 13 1021.0 64 E VA BEACH 0850 54 53 30/ 6/ 8 1020.4 6/10 5/10 DUCK 0800 56 67 90/ 9/ 10 1019.7 2 E DUCK 0811 59 N/A 5/10 2/11 OREGON INLET 0800 58 62 50/ 7/ 10 1019.6 13E OREGON INLT 0900 56 N/A 6/10 5/10 HATTERAS CG 0800 62 68 50/ 7/ 9 1019.2 DIAMOND BUOY 0850 72 73 160/ 12/ 14 1019.3 5/10 5/10 CAPE LOOKOUT 0900 65 60/ 7/ 8 1019.1 BEAUFORT LAB 0800 61 66 20/ 4/ 5 1018.5 30 SE NEW RVR IN 0825 69 N/A 3/11 2/11 27 SE WRIGHTSVLE 0808 74 72 160/ 14/ 19 1018.4 5 SE WRIGHTSVLE 0808 67 68 90/ 8/ 14 1019.6 225 S CAPE HAT 0850 71 100/ 14/ 16 1019.3 6/ 9 5/ 9 41 SE CHARLESTON 0850 74 73 140/ 16/ 17 1017.5 5/ 5 2/ 9 $$

USA.gov is the U.S. government's official web portal to all federal, state and local government web resources and services.